Regional Weather Roundup
Issued by NWS Midland/Odessa, TX

Current Version | Previous Version | Text Only | Print | Product List | Glossary On
Versions: 1 2 3 4 5 6 7 8 9 10 11 12 13 14 15 16 17 18 19 20 21 22 23 24 25 26 27 28 29 30 31 32 33 34 35 36 37 38 39 40 41 42 43 44 45 46 47 48 49 50
000
ASUS44 KMAF 270710
RWRMAF
MIDLAND AREA WEATHER ROUNDUP
NATIONAL WEATHER SERVICE MIDLAND TX
200 AM CDT THU JUL 27 2017

...IN SOUTHWEST TEXAS AND SOUTHEAST NEW MEXICO...

CITY           SKY/WX    TMP DP  RH WIND       PRES   REMARKS
ALPINE         CLEAR     74  54  49 S8        30.21S
ANDREWS        FAIR      77  55  46 S7        30.09S
ARTESIA        CLOUDY    77  61  57 S7        30.07S
BIG SPRING     CLEAR     77  57  50 SE7       30.08S
CARLSBAD       CLEAR     80  61  52 SE9       30.04F
DRYDEN           N/A     82  65  56 E13       30.02S
FORT STOCKTON  CLEAR     81  57  43 S14       30.04S
GUAD PASS      CLEAR     74  57  55 NE20      30.21F
HOBBS          CLEAR     79  54  41 S14       30.11S
MARFA          CLEAR     71  56  58 E7        30.20S
MIDLAND AIRPK  CLEAR     81  55  41 S8        30.07S
MIDLAND INTL   CLEAR     78  59  51 SE6       30.07S
ODESSA         CLEAR     81  56  42 S9        30.07F
PECOS          CLEAR     79  56  45 CALM      30.02S
PRESIDIO       FAIR      83  62  48 E6        30.04S
SEMINOLE       PTCLDY    76  54  45 S9        30.10S
SNYDER         MOCLDY    79  58  48 S8        30.05S
WINK           CLEAR     80  56  43 SE8       30.03S
$$
...OTHER STATIONS IN TEXAS...

CITY           SKY/WX    TMP DP  RH WIND       PRES   REMARKS
ABILENE        CLOUDY    82  63  52 S12       30.02S
AMARILLO       CLOUDY    75  63  66 SW17      30.08R
AUSTIN         CLEAR     78  72  81 S6        30.06R
BROWNSVILLE    CLEAR     77  74  90 SE3       30.04R
CORPUS CHRISTI PTCLDY    79  76  90 S8        30.03F
DALLAS FTW     CLOUDY    87  70  56 S18G25    29.96F
DEL RIO        CLEAR     81  64  56 E8        30.02R
EL PASO        CLOUDY    83  64  52 SW6       30.08S THUNDER
HOUSTON INT    PTCLDY    81  74  79 S5        30.05S
LUBBOCK        MOCLDY    82  55  39 S16G26    30.07S
SAN ANGELO     CLEAR     82  63  52 S12       30.05R
SAN ANTONIO    PTCLDY    79  69  71 S14G22    30.06F
WACO           CLEAR     82  72  71 S15       30.02R
WICHITA FALLS  NOT AVBL
$$
...OTHER LOCATIONS IN NEW MEXICO...

CITY           SKY/WX    TMP DP  RH WIND       PRES   REMARKS
ALAMOGORDO     MOCLDY    79  59  50 SE6       30.11S
ALBUQUERQUE    CLOUDY    79  55  43 NE13      30.18F
CANNON AFB     CLOUDY    79  55  44 W7        30.16R
CLOVIS         CLOUDY    75  57  53 SW8       30.14R
HOLLOMAN AFB   MOCLDY    82  60  47 S10       30.10S
ROSWELL        PTCLDY    77  62  59 SE6       30.06S
RUIDOSO        CLOUDY    66  55  68 NE3       30.32F
SANTA FE       CLOUDY    75  55  49 N8        30.27R
TRUTH OR CONSE PTCLDY    78  58  49 SW7       30.13S
TUCUMCARI      CLOUDY    81  62  52 CALM      30.11R
$$



USA.gov is the U.S. government's official web portal to all federal, state and local government web resources and services.